DELTA 1 DEB, 13536

Orbit data source: Space-Track

DELTA 1 DEB, 13536 is space debris in LEO originally from a launch on Thu, 29 Jul 1976 UTC launched from the Air Force Western Test Range (AFWTR). Debris objects in space refer to the collection of defunct objects orbiting the Earth. Examples of debris include non-operational satellites, rocket bodies, and fragments generated from explosions, collisions, or faulty payload assembly.

Loading next visibility...
Identifier
13536, 1976-077EJ
Orbit
LEO
Country
Flag of USUS
Related business
Manufacturer
Unknown
Mission
Spacecraft
Bus & Motor
Unknown
Mass
Unknown
Launch date (UTC)
1976-07-29 (50 years ago)
Launch vehicle
Unknown
Launch site
Air Force Western Test Range (AFWTR)
Object type
Payload
Rocket body
Debris
Shape & HBR
Unknown shape, 0.1 m
Radar Cross Section
Small (<0.1 m²)

Expand to show TLE details & history
Last TLE update: 14 hours ago

TLE from 14 hours ago
0 DELTA 1 DEB
1 13536U 76077EJ  26126.26518075  .00000120  00000-0  20170-2 0  9991
2 13536 101.8045  45.5767 0420941 117.7076  32.1814 11.75911447 53122
Epoch: 2026-05-06T06:21Z
TLE epoch observation values (Epoch: 2026-05-06T06:21:51.616Z)
Latitude
26.83377°
Longitude
-87.97759°
Altitude
1,506.705 km
Speed
7.237 km/s
True Right ascension
15h 26m 27s
True Declination
26° 42' 31"
Sunlit
Object was in full shadow at epoch
Visualization orbit readout
Latitude
Unknown
Longitude
Unknown
Altitude
Unknown
Speed
Unknown
Apparent Right ascension
Unknown
Apparent Declination
Unknown
Sunlit
N/A
Visualization observer readout
Local Sidereal Time
03:56:42
Azimuth
Unknown
Elevation
Unknown
Doppler factor
Unknown
Orbital elements
Apogee altitude
2,131.943 km
Perigee altitude
1,444.435 km
Semi-major axis
8,166.326 km
Eccentricity
0.04209
Inclination
101.8045°
RAAN
45.5767°
Arg. of periapsis
117.7076°
True anomaly
34.86899°
Mean anomaly
32.1814°
Eccentric anomaly
33.51303°
Mean motion
2.94105 °/min
Orbital period
122.41 mins
BSTAR
0.002017
Loading maneuver chart data...
Computing Atmospheric mass density...
Loading historical data...
Loading historical data...
Loading historical data...
Loading historical data...
Loading historical data...
Loading historical data...
Loading historical data...

Documentation

Showing up to 5 results
|